Hourly Weather Rudnya

Today, 20 April, Tuesday

Time Temperature Precipitation Wind Pressure Humidity
00:00 +6°C° 0 mm 2 mps 745 mmHg 85%
01:00 +5°C° 0 mm 2 mps 744 mmHg 87%
02:00 +5°C° 0 mm 2 mps 744 mmHg 89%
03:00 +5°C° 0 mm 2 mps 744 mmHg 89%
04:00 +5°C° 0 mm 2 mps 744 mmHg 89%
05:00 +5°C° 0 mm 2 mps 744 mmHg 88%
06:00 +5°C° 0 mm 2 mps 744 mmHg 86%
07:00 +6°C° 0 mm 2 mps 744 mmHg 85%
08:00 +7°C° 0 mm 2 mps 744 mmHg 83%
09:00 +8°C° 0.1 mm 2 mps 743 mmHg 77%
10:00 +9°C° 0.1 mm 2 mps 743 mmHg 71%
11:00 +12°C° 0.1 mm 2 mps 743 mmHg 65%
12:00 +11°C° 0.3 mm 3 mps 743 mmHg 62%
13:00 +12°C° 0.3 mm 3 mps 742 mmHg 59%
14:00 +12°C° 0.3 mm 3 mps 742 mmHg 56%
15:00 +12°C° 0.2 mm 3 mps 742 mmHg 58%
16:00 +12°C° 0.2 mm 3 mps 742 mmHg 59%
17:00 +11°C° 0.2 mm 3 mps 742 mmHg 60%
18:00 +10°C° 0 mm 3 mps 742 mmHg 66%
19:00 +9°C° 0 mm 2 mps 742 mmHg 72%
20:00 +7°C° 0 mm 2 mps 742 mmHg 78%
21:00 +8°C° 0 mm 1 mps 742 mmHg 79%
22:00 +7°C° 0 mm 1 mps 742 mmHg 81%
23:00 +6°C° 0 mm 0 mps 742 mmHg 83%

Tomorrow, 21 April, Wednesday

Time Temperature Precipitation Wind Pressure Humidity
00:00 +6°C° 0 mm 1 mps 742 mmHg 83%
01:00 +6°C° 0 mm 1 mps 742 mmHg 84%
02:00 +5°C° 0 mm 2 mps 742 mmHg 85%
03:00 +5°C° 0 mm 2 mps 741 mmHg 86%
04:00 +5°C° 0 mm 2 mps 741 mmHg 87%
05:00 +5°C° 0 mm 2 mps 741 mmHg 88%
06:00 +5°C° 0.1 mm 3 mps 741 mmHg 86%
07:00 +7°C° 0.1 mm 3 mps 742 mmHg 83%
08:00 +8°C° 0.1 mm 3 mps 742 mmHg 81%
09:00 +10°C° 0.4 mm 4 mps 742 mmHg 73%
10:00 +11°C° 0.4 mm 4 mps 741 mmHg 65%
11:00 +13°C° 0.4 mm 5 mps 741 mmHg 57%
12:00 +13°C° 0.4 mm 5 mps 741 mmHg 56%
13:00 +13°C° 0.4 mm 5 mps 741 mmHg 55%
14:00 +14°C° 0.4 mm 5 mps 741 mmHg 54%
15:00 +13°C° 0.5 mm 5 mps 741 mmHg 59%
16:00 +13°C° 0.5 mm 5 mps 741 mmHg 64%
17:00 +13°C° 0.5 mm 5 mps 741 mmHg 69%
18:00 +11°C° 0.5 mm 4 mps 741 mmHg 75%
19:00 +10°C° 0.5 mm 4 mps 741 mmHg 81%
20:00 +9°C° 0.5 mm 3 mps 741 mmHg 86%
21:00 +8°C° 0.2 mm 3 mps 742 mmHg 89%
22:00 +8°C° 0.2 mm 3 mps 742 mmHg 91%
23:00 +7°C° 0.2 mm 3 mps 742 mmHg 93%

Day after tomorrow, 22 April, Thursday

Time Temperature Precipitation Wind Pressure Humidity
00:00 +7°C° 0 mm 3 mps 742 mmHg 93%
01:00 +7°C° 0 mm 3 mps 742 mmHg 93%
02:00 +5°C° 0 mm 3 mps 742 mmHg 93%
03:00 +5°C° 0 mm 3 mps 742 mmHg 94%
04:00 +5°C° 0 mm 3 mps 742 mmHg 94%
05:00 +4°C° 0 mm 3 mps 742 mmHg 94%
06:00 +7°C° 0 mm 3 mps 742 mmHg 88%
07:00 +7°C° 0 mm 4 mps 743 mmHg 82%
08:00 +10°C° 0 mm 4 mps 743 mmHg 76%
09:00 +11°C° 0 mm 4 mps 743 mmHg 68%
10:00 +13°C° 0 mm 4 mps 743 mmHg 60%
11:00 +14°C° 0 mm 3 mps 743 mmHg 53%
12:00 +14°C° 0.2 mm 4 mps 743 mmHg 57%
13:00 +14°C° 0.2 mm 4 mps 743 mmHg 61%
14:00 +13°C° 0.2 mm 4 mps 742 mmHg 65%
15:00 +10°C° 2 mm 5 mps 743 mmHg 73%
16:00 +9°C° 2 mm 5 mps 743 mmHg 81%
17:00 +7°C° 2 mm 6 mps 743 mmHg 90%
18:00 +6°C° 0.1 mm 5 mps 744 mmHg 90%
19:00 +7°C° 0.1 mm 3 mps 744 mmHg 90%
20:00 +6°C° 0.1 mm 2 mps 744 mmHg 90%
21:00 +6°C° 0 mm 2 mps 744 mmHg 91%
22:00 +6°C° 0 mm 2 mps 744 mmHg 91%
23:00 +5°C° 0 mm 2 mps 744 mmHg 91%

23 April, Friday

Time Temperature Precipitation Wind Pressure Humidity
00:00 +5°C° 0 mm 2 mps 744 mmHg 88%
01:00 +5°C° 0 mm 2 mps 744 mmHg 86%
02:00 +5°C° 0 mm 2 mps 744 mmHg 84%
03:00 +5°C° 0 mm 2 mps 745 mmHg 84%
04:00 +4°C° 0 mm 3 mps 745 mmHg 84%
05:00 +4°C° 0 mm 3 mps 745 mmHg 84%
06:00 +4°C° 0 mm 3 mps 745 mmHg 81%
07:00 +4°C° 0 mm 4 mps 745 mmHg 78%
08:00 +4°C° 0 mm 4 mps 746 mmHg 75%
09:00 +6°C° 0.1 mm 5 mps 746 mmHg 67%
10:00 +7°C° 0.1 mm 5 mps 746 mmHg 60%
11:00 +8°C° 0.1 mm 6 mps 746 mmHg 52%
12:00 +8°C° 0.2 mm 6 mps 746 mmHg 52%
13:00 +8°C° 0.2 mm 7 mps 746 mmHg 52%
14:00 +8°C° 0.2 mm 7 mps 746 mmHg 52%
15:00 +8°C° 0.1 mm 7 mps 746 mmHg 54%
16:00 +6°C° 0.1 mm 7 mps 746 mmHg 57%
17:00 +6°C° 0.1 mm 7 mps 746 mmHg 59%
18:00 +5°C° 0 mm 6 mps 746 mmHg 63%
19:00 +4°C° 0 mm 6 mps 747 mmHg 68%
20:00 +3°C° 0 mm 5 mps 747 mmHg 73%
21:00 +2°C° 0.1 mm 5 mps 747 mmHg 75%
22:00 +1°C° 0.1 mm 6 mps 747 mmHg 78%
23:00 -1°C° 0.1 mm 6 mps 748 mmHg 81%

24 April, Saturday

Time Temperature Precipitation Wind Pressure Humidity
00:00 -2°C° 0 mm 6 mps 748 mmHg 79%
01:00 -2°C° 0 mm 5 mps 748 mmHg 76%
02:00 -2°C° 0 mm 5 mps 748 mmHg 73%
03:00 -2°C° 0 mm 5 mps 748 mmHg 76%
04:00 -4°C° 0 mm 5 mps 749 mmHg 78%
05:00 -4°C° 0 mm 5 mps 749 mmHg 81%
06:00 -1°C° 0 mm 5 mps 749 mmHg 73%
07:00 0°C° 0 mm 5 mps 749 mmHg 65%
08:00 +2°C° 0 mm 5 mps 749 mmHg 57%
09:00 +3°C° 0 mm 5 mps 749 mmHg 55%
10:00 +5°C° 0 mm 5 mps 749 mmHg 53%
11:00 +6°C° 0 mm 5 mps 749 mmHg 51%
12:00 +6°C° 0.1 mm 5 mps 748 mmHg 54%
13:00 +6°C° 0.1 mm 5 mps 748 mmHg 56%
14:00 +7°C° 0.1 mm 5 mps 748 mmHg 59%
15:00 +7°C° 0.1 mm 4 mps 747 mmHg 59%
16:00 +7°C° 0.1 mm 4 mps 747 mmHg 60%
17:00 +7°C° 0.1 mm 4 mps 747 mmHg 60%
18:00 +7°C° 0.2 mm 3 mps 747 mmHg 71%
19:00 +4°C° 0.2 mm 3 mps 747 mmHg 82%
20:00 +3°C° 0.2 mm 3 mps 747 mmHg 92%
21:00 +3°C° 0 mm 3 mps 747 mmHg 92%
22:00 +3°C° 0 mm 4 mps 747 mmHg 92%
23:00 +3°C° 0 mm 4 mps 747 mmHg 92%

25 April, Sunday

Time Temperature Precipitation Wind Pressure Humidity
00:00 +3°C° 0.1 mm 4 mps 747 mmHg 93%
01:00 +2°C° 0.1 mm 3 mps 747 mmHg 94%
02:00 +1°C° 0.1 mm 3 mps 747 mmHg 96%
03:00 +1°C° 0 mm 3 mps 747 mmHg 94%
04:00 0°C° 0 mm 4 mps 748 mmHg 93%
05:00 0°C° 0 mm 4 mps 748 mmHg 92%
06:00 0°C° 0 mm 4 mps 748 mmHg 83%
07:00 0°C° 0 mm 5 mps 749 mmHg 74%
08:00 +1°C° 0 mm 5 mps 749 mmHg 65%
09:00 +2°C° 0 mm 5 mps 749 mmHg 57%
10:00 +3°C° 0 mm 5 mps 749 mmHg 50%
11:00 +5°C° 0 mm 6 mps 750 mmHg 42%
12:00 +5°C° 0 mm 6 mps 749 mmHg 41%
13:00 +7°C° 0 mm 6 mps 749 mmHg 40%
14:00 +6°C° 0 mm 7 mps 749 mmHg 39%
15:00 +7°C° 0 mm 6 mps 749 mmHg 42%
16:00 +7°C° 0 mm 6 mps 749 mmHg 46%
17:00 +7°C° 0 mm 6 mps 749 mmHg 49%
18:00 +6°C° 0 mm 5 mps 749 mmHg 55%
19:00 +4°C° 0 mm 4 mps 749 mmHg 62%
20:00 +3°C° 0 mm 4 mps 749 mmHg 68%
21:00 +1°C° 0 mm 4 mps 750 mmHg 72%
22:00 +1°C° 0 mm 3 mps 750 mmHg 75%
23:00 +1°C° 0 mm 3 mps 750 mmHg 79%
Show more